
TIANWANG 1C (TW-1C)     
1 40926U 15051B   15276.10902933  .00010569  00000-0  36700-3 0  9991
2 40926  97.3107 311.4821 0015067 251.9535 194.4612 15.29838621  1215

TIANWANG 1B (TW-1B)     
1 40927U 15051C   15276.10754361  .00006828  00000-0  23675-3 0  9992
2 40927  97.3190 311.4899 0014190 257.7251 187.2504 15.30042565  1214

TIANWANG 1A (TW-1A)     
1 40928U 15051D   15276.17274321  .00005694  00000-0  19757-3 0  9999
2 40928  97.3037 311.5415 0013299 260.8645 184.9316 15.30102695  1228

NOAA 15                 
1 25338U 98030A   15275.46661715  .00000088  00000-0  55884-4 0  9997
2 25338  98.7780 274.2032 0009944 212.2859 147.7712 14.25664285904125

NOAA 18                 
1 28654U 05018A   15275.47004712  .00000063  00000-0  59739-4 0  9990
2 28654  99.1915 270.7689 0014733  23.7271 336.4576 14.12236607534211

NOAA 19                 
1 33591U 09005A   15275.52313772  .00000198  00000-0  13266-3 0  9994
2 33591  99.0014 225.7166 0013145 225.2540 134.7562 14.11983186342637

TJS-1                   
1 40892U 15046A   15275.80881535 -.00000184  00000-0  00000+0 0  9990
2 40892   0.1658 254.6519 0002218 263.1230 299.6601  1.00273641   341

2015-049A               
1 40899U 15049A   15276.11090600  .00002102  00000-0  12111-3 0  9991
2 40899  97.4559 283.9974 0014606 225.1486 221.7390 15.13414399  2004

PUJIANG 1 (PJ-1)        
1 40925U 15051A   15276.10991642  .00002521  00000-0  90531-4 0  9997
2 40925  97.3108 311.4793 0012943 250.7659 193.4472 15.29530460  1210

2015-052A               
1 40930U 15052A   15275.62579946  .00000979  00000-0  48392-4 0  9992
2 40930   5.9943 358.3613 0012138  54.4415 305.9026 14.76114771   661

2015-052B               
1 40931U 15052B   15272.72016628  .00000445  00000-0 -27196-4 0  9992
2 40931   5.9996  19.0388 0013165  16.6402 343.4213 14.76347078   222

2015-052C               
1 40932U 15032C   15272.71993296 -.00005951  00000-0 -92159-3 0  9993
2 40932   6.0063  19.0682 0013757  19.3578 340.6978 14.76573798   225

2015-052D               
1 40933U 15052D   15272.71976303 -.00001422  00000-0 -28717-3 0  9994
2 40933   6.0014  19.0357 0014384  20.5024 339.5740 14.76741934   221

2015-052E               
1 40934U 15052E   15272.72055363  .00003575  00000-0  41662-3 0  9993
2 40934   6.0080  19.0525 0011391  17.5351 342.5114 14.75975255   195

2015-052F               
1 40935U 15052F   15272.72073021  .00010714  00000-0  14328-2 0  9996
2 40935   6.0018  19.0175 0010541  12.9399 347.0894 14.75799588   205

2015-052G               
1 40936U 15052G   15272.72077914 -.00003213  00000-0 -54851-3 0  9996
2 40936   6.0026  19.0020 0010697  12.4851 347.5496 14.75737372   211

SKY MUSTER (NBN1A)      
1 40940U 15054A   15276.15656116 -.00000320  00000-0  00000+0 0  9999
2 40940   3.1431 143.7158 5515022 179.0719 345.4142  1.93852917    57

ARSAT 2                 
1 40941U 15054B   15275.91293683 -.00000216  00000-0  00000+0 0  9993
2 40941   3.5350 144.0352 5809148 178.6676 187.1131  1.99508150    45

MORELOS 3               
1 40946U 15056A   15276.21920890 -.00000276  00000-0  00000+0 0  9997
2 40946  26.9968 333.9382 5808414 180.0761 198.5414  1.99330207    16

SO-33
1 25509U 98061B   15274.67967102  .00000413  00000-0  67360-4 0  9996
2 25509  31.4353   7.6539 0347879 287.1182  69.1630 14.30071729884671

AO-16
1 20439U 90005D   15273.80756374  .00000073  00000-0  43028-4 0  9991
2 20439  98.5463 208.4798 0010228 203.3496 176.8739 14.32571853341865

AO-51
1 28375U 04025K   15274.77575836  .00000180  00000-0  66106-4 0  9995
2 28375  98.2999 212.1964 0083002   8.5598 351.6985 14.41699748591843

NOAA-14
1 23455U 94089A   15274.49035707  .00000019  00000-0  32791-4 0  9999
2 23455  98.7465 353.7263 0010280 133.4304 359.9277 14.14053711 70554

NOAA-16
1 26536U 00055A   15274.51560124  .00000008  00000-0  28172-4 0  9997
2 26536  98.9321 340.3375 0009536 294.1018  65.9156 14.13109614774672

NOAA-17
1 27453U 02032A   15274.46350917  .00000029  00000-0  30102-4 0  9993
2 27453  98.3513 255.2549 0010684 227.6427 132.3849 14.24900749689792

RS-38
1 35869U 09049E   15274.74908012  .00000036  00000-0  34891-4 0  9991
2 35869  98.4834 310.7993 0004784 151.8610 208.2807 14.22310703313407

AUBIESAT
1 37854U 11061E   15274.45431878  .00003685  00000-0  22042-3 0  9990
2 37854 101.6917 181.8409 0184588 118.9084 243.0780 14.99127105213133

RS-40
1 38735U 12041C   15274.71702991  .00000040  00000-0  21992-3 0  9999
2 38735  82.4807 353.5572 0015745 310.5776  49.3934 12.42570209144146

DELFIN3XT
1 39428U 13066N   15274.17831838  .00001198  00000-0  20519-3 0  9999
2 39428  97.7048 316.7685 0123624 193.5463 166.2414 14.65653024 99264

TSUBAME
1 40302U 14070E   15274.86582233  .00003263  00000-0  18122-3 0  9998
2 40302  97.4412 351.4414 0043644 127.9607   6.8261 15.13604441 49806

LAMBDA-SAT
1 40458U 98067GB  15136.30676273  .20783109  12527-4  14817-2 0  9995
2 40458 051.6075 233.7697 0010355 318.5347 043.1720 16.39926603 21161

NO-84
1 40654U          15274.52314853  .00019595  00000-0  47580-3 0 01391
2 40654 054.9903 118.3236 0240335 149.8850 211.6279 15.16454582020299

NO-83
1 40655U          15274.52817050  .00025749  00000-0  60772-3 0 01452
2 40655 054.9918 117.6947 0235954 150.2526 211.2206 15.17763789020305

PHASE 3B (AO-10)
1 14129U 83058B   15275.50043685 -.00000181  00000-0  00000+0 0  9992
2 14129  26.0728 134.9055 6063189 137.2916 231.5892  2.05871355214972

TURKSAT-3USAT
1 39152U 13018C   15276.18663900  .00001057  00000-0  14827-3 0  9995
2 39152  97.9859 357.5591 0015886 259.7454 100.1966 14.79493091131429

AIST 1
1 39492U 13078C   15275.90717101  .00000682  00000-0  73139-4 0  9995
2 39492  82.4173  57.7945 0018826 300.1227  59.8126 14.87091721 95578

BUGSAT-1 (TITA)
1 40014U 14033E   15276.18025187  .00001762  00000-0  17090-3 0  9999
2 40014  97.9565 181.9120 0031359 228.7815 131.0709 14.93675888 70162

PEHUENSAT 1 (PO-63)
1 29712U 07001D   15275.54560875  .00010889  00000-0  75875-3 0  9990
2 29712  97.6018 295.7962 0006883 244.3838 115.6678 15.05580782473246

TABLETSAT-AURORA
1 40017U 14033H   15276.17924244  .00001554  00000-0  15989-3 0  9997
2 40017  97.9530 180.1839 0022893 224.7453 135.1918 14.91628940 70063

AISAT
1 40054U 14034B   15276.18317052  .00001865  00000-0  27991-3 0  9994
2 40054  98.2113 355.5941 0012475 236.5056 123.4961 14.75752463 67785

TRITON-1
1 39427U 13066M   15275.17823960  .00000873  00000-0  14978-3 0  9997
2 39427  97.7035 319.5791 0115458 184.7651 175.2465 14.66809837 99548

GOMX 1
1 39430U 13066Q   15276.08338439  .00000520  00000-0  10520-3 0  9992
2 39430  97.6953 311.3615 0152604 209.4024 149.8531 14.58220597 99102

ARSAT 1
1 40272U 14062B   15275.16850172 -.00000288  00000-0  00000+0 0  9996
2 40272   0.0311 260.0476 0001910 314.8530 144.5370  1.00278257  3674

COSMOS 2499
1 39765U 14028E   15274.76582803  .00000013  00000-0  45270-5 0  9990
2 39765  82.4376  14.1375 0228242 186.1451 173.6862 12.83483106 63636

UNISAT-6
1 40012U 14033C   15276.16651666  .00000841  00000-0  13523-3 0  9996
2 40012  97.9280 165.7564 0060279 133.8171 226.8044 14.72923454 69200

NANOSATC-BR1
1 40024U 14033Q   15276.17625353  .00001706  00000-0  19209-3 0  9992
2 40024  97.9412 176.7540 0012333 183.2893 176.8244 14.87932555 69859

METEOR-M 2
1 40069U 14037A   15276.06039729 -.00000028  00000-0  73966-5 0  9998
2 40069  98.7465 329.6439 0005087 203.2613 156.8338 14.20616552 64087

FIRST-MOVE
1 39439U 13066Z   15275.80271713  .00002244  00000-0  29469-3 0  9998
2 39439  97.7179 332.6981 0069010 147.6749 212.8721 14.79569098100402

TERRA
1 25994U 99068A   15276.16631559  .00001213  00000-0  27933-3 0  9992
2 25994  98.2032 349.1801 0001124 107.8643 252.2764 14.57092874839946
